Location: Fontevrault
(47.1823°N, 0.0493°E)
Time: 04:06:31
(UTC+00:00)

Uosat 12 SS-18 rocket - Pass Details

Date: 24 October 2021
Orbit: 579 x 1405 km, 64.6° (Epoch: 01 December)

Event Time Altitude Azimuth Distance (km) Brightness Sun altitude
Rises 22:24:30 0° 321° (NW) 3,773 8.7 -51.1°
Reaches altitude 10° 22:27:09 10° 329° (NNW) 2,939 8.0 -51.4°
Enters shadow 22:28:06 14° 333° (NNW) 2,660 7.7 -51.5°
